COSMOS 1375 DEB, 17107

Orbit data source: Space-Track

COSMOS 1375 DEB, 17107 is space debris in LEO originally from a launch on Sun, 06 Jun 1982 UTC launched from the Plesetsk Missile And Space Complex (PKMTR). Debris objects in space refer to the collection of defunct objects orbiting the Earth. Examples of debris include non-operational satellites, rocket bodies, and fragments generated from explosions, collisions, or faulty payload assembly.

Loading next visibility...
Identifier
17107, 1982-055AJ
Orbit
LEO
Country
Flag of CISCIS
Related business
Manufacturer
Unknown
Mission
Spacecraft
Bus & Motor
Unknown
Mass
Unknown
Launch date (UTC)
1982-06-06 (44 years ago)
Launch vehicle
Unknown
Launch site
Plesetsk Missile And Space Complex (PKMTR)
Object type
Payload
Rocket body
Debris
Shape & HBR
Unknown shape, 0.2 m
Radar Cross Section
Medium (>0.1 m² and <1 m²)

Expand to show TLE details & history
Last TLE update: 3 days ago

TLE from 3 days ago
0 COSMOS 1375 DEB
1 17107U 82055AJ  26170.86610663  .00000746  00000-0  48883-3 0  9999
2 17107  65.8202 342.8797 0021223  11.1007 103.8878 14.07982764 67614
Epoch: 2026-06-19T20:47Z
TLE epoch observation values (Epoch: 2026-06-19T20:47:11.612Z)
Latitude
55.73615°
Longitude
-97.97483°
Altitude
878.357 km
Speed
7.417 km/s
True Right ascension
08h 07m 38s
True Declination
55° 34' 43"
Sunlit
Object was in daylight at epoch
Visualization orbit readout
Latitude
Unknown
Longitude
Unknown
Altitude
Unknown
Speed
Unknown
Apparent Right ascension
Unknown
Apparent Declination
Unknown
Sunlit
N/A
Visualization observer readout
Local Sidereal Time
23:09:08
Azimuth
Unknown
Elevation
Unknown
Doppler factor
Unknown
Orbital elements
Apogee altitude
880.149 km
Perigee altitude
849.406 km
Semi-major axis
7,242.915 km
Eccentricity
0.00212
Inclination
65.8202°
RAAN
342.8797°
Arg. of periapsis
11.1007°
True anomaly
104.12374°
Mean anomaly
103.8878°
Eccentric anomaly
104.00578°
Mean motion
3.52106 °/min
Orbital period
102.24 mins
BSTAR
0.00048883
Loading maneuver chart data...
Computing Atmospheric mass density...
Loading historical data...
Loading historical data...
Loading historical data...
Loading historical data...
Loading historical data...
Loading historical data...
Loading historical data...

Documentation

Showing up to 5 results
|